McAllen, TX

9:59 AM CST on February 21, 2018 (GMT -0600)
McAllen Miller International

Weather History for KMFE - March, 2014

Change the Weather History Date:

Friday, March 28, 2014

  Actual Average Record
Temperature  
Mean Temperature 83 °F 73 °F  
Max Temperature 98 °F 85 °F 100 °F (1972)
Min Temperature 68 °F 62 °F 43 °F (1955)
Degree Days  
Heating Degree Days 0 1  
Month to date heating degree days 98 39  
Since 1 July heating degree days 874 572  
Cooling Degree Days 18 9  
Month to date cooling degree days 109 190  
Year to date cooling degree days 237 349  
Growing Degree Days 33 (Base 50)    
Moisture  
Dew Point 62 °F    
Average Humidity 58    
Maximum Humidity 100    
Minimum Humidity 16    
Precipitation  
Precipitation 0.00 in 0.03 in 0.44 in (1999)
Month to date precipitation 1.17 0.94  
Year to date precipitation 2.05 3.10  
Sea Level Pressure  
Sea Level Pressure 29.79 in    
Wind  
Wind Speed 8 mph (SE)    
Max Wind Speed 23 mph    
Max Gust Speed 30 mph    
Visibility 8 miles    
Events      
T = Trace of Precipitation, MM = Missing Value Source: NWS Daily Summary

Daily Weather History Graph

Daily Weather History Graph

Search for Another Location

Airport or City:

Trip Planner

Search our weather history database for the weather conditions in past years. The results will help you decide how hot, cold, wet, or windy it might be!

Date:

Astronomy

Mar. 28, 2014 Rise Set
Actual Time 7:28 AM CDT 7:48 PM CDT
Civil Twilight 7:05 AM CDT 8:11 PM CDT
Nautical Twilight 6:38 AM CDT 8:38 PM CDT
Astronomical Twilight 6:10 AM CDT 9:05 PM CDT
Moon 5:47 AM CDT (3/28) 5:55 PM CDT (3/28)
Length of Visible Light 13h 06m
Length of Day
12h 19m
Waning Crescent, 6% of the Moon is Illuminated
Mar 28
Waning Crescent
Mar 30
New
Apr 7
First Quarter
Apr 15
Full
Apr 22
Last Quarter

Hourly Weather History & Observations

Time (CDT) Temp. Heat Index Dew Point Humidity Pressure Visibility Wind Dir Wind Speed Gust Speed Precip Events Conditions
12:03 AM 69.8 °F - 69.8 °F 100% 29.81 in 5.0 mi SSE 6.9 mph - N/A   Mostly Cloudy
12:53 AM 71.1 °F - 70.0 °F 96% 29.80 in 5.0 mi SSE 8.1 mph - N/A   Overcast
1:53 AM 72.0 °F - 70.0 °F 93% 29.78 in 5.0 mi SSE 11.5 mph - N/A   Overcast
2:53 AM 72.0 °F - 70.0 °F 93% 29.75 in 5.0 mi SSE 8.1 mph - N/A   Overcast
3:53 AM 72.0 °F - 70.0 °F 93% 29.74 in 7.0 mi SSE 8.1 mph - N/A   Overcast
4:53 AM 71.1 °F - 70.0 °F 96% 29.74 in 6.0 mi SE 4.6 mph - N/A   Overcast
5:53 AM 71.1 °F - 70.0 °F 96% 29.74 in 5.0 mi SE 5.8 mph - N/A   Overcast
6:53 AM 70.0 °F - 69.1 °F 97% 29.75 in 5.0 mi SSE 6.9 mph - N/A   Overcast
7:53 AM 71.1 °F - 69.1 °F 93% 29.76 in 5.0 mi SSE 11.5 mph 18.4 mph N/A   Overcast
8:53 AM 71.1 °F - 69.1 °F 93% 29.78 in 5.0 mi SSE 10.4 mph - N/A   Overcast
9:53 AM 72.0 °F - 69.1 °F 91% 29.81 in 6.0 mi South 8.1 mph - N/A   Overcast
10:53 AM 73.0 °F - 70.0 °F 90% 29.81 in 6.0 mi South 9.2 mph - N/A   Overcast
11:50 AM 75.2 °F - 69.8 °F 83% 29.82 in 9.0 mi South 5.8 mph - N/A   Overcast
11:53 AM 75.9 °F - 70.0 °F 82% 29.81 in 9.0 mi SSE 8.1 mph - N/A   Overcast
12:20 PM 78.8 °F - 69.8 °F 74% 29.82 in 9.0 mi SSE 4.6 mph - N/A   Scattered Clouds
12:53 PM 81.0 °F 84.4 °F 70.0 °F 69% 29.81 in 10.0 mi Variable 3.5 mph - N/A   Clear
1:53 PM 84.9 °F 88.8 °F 69.1 °F 59% 29.80 in 10.0 mi Calm Calm - N/A   Clear
2:53 PM 89.1 °F 93.7 °F 69.1 °F 52% 29.76 in 10.0 mi NNW 4.6 mph - N/A   Clear
3:53 PM 93.9 °F 91.4 °F 53.1 °F 25% 29.73 in 10.0 mi North 16.1 mph 24.2 mph N/A   Clear
4:53 PM 97.0 °F - 44.1 °F 16% 29.72 in 10.0 mi NNW 19.6 mph 28.8 mph N/A   Clear
5:53 PM 96.1 °F - 42.1 °F 15% 29.73 in 10.0 mi North 13.8 mph - N/A   Clear
6:53 PM 93.9 °F - 44.1 °F 18% 29.75 in 10.0 mi North 11.5 mph - N/A   Clear
7:53 PM 88.0 °F - 45.0 °F 22% 29.77 in 10.0 mi North 6.9 mph - N/A   Clear
8:53 PM 84.0 °F - 48.0 °F 28% 29.81 in 10.0 mi North 4.6 mph - N/A   Clear
9:53 PM 82.9 °F - 44.1 °F 25% 29.84 in 10.0 mi NNE 6.9 mph - N/A   Clear
10:53 PM 80.1 °F - 46.9 °F 31% 29.87 in 10.0 mi NE 4.6 mph - N/A   Clear
11:53 PM 71.1 °F - 54.0 °F 55% 29.91 in 10.0 mi Calm Calm - N/A   Clear